Location: Boss Branch
(32.3799°N, 97.2508°W)
Time: 00:14:04
(UTC+00:00)

JUGNU - Pass Details

Date: 12 December 2024
Orbit: 834 x 861 km, 20.0° (Epoch: 19 January)

Event Time Altitude Azimuth Distance (km) Brightness Sun altitude
Exits shadow 12:42:24 - 250° (WSW) 3,317 ? -8.3°
Reaches altitude 10° 12:45:31 10° 234° (SW) 2,426 ? -7.7°
Maximum altitude 12:49:29 19° 190° (S) 1,875 ? -6.9°
Drops below altitude 10° 12:53:27 10° 147° (SSE) 2,426 ? -6.2°
Sets 12:56:43 0° 129° (SE) 3,362 ? -5.5°
